Lake Hudson Weather Center

Moon Phase Calendar



Lake Hudson Water Level
Online Cameras

 


      

Current Conditions in Salina
2/29/2024 6:05:50 AM

25°F
Feels Like 18
Clouds
Humidity
45%
Pressure
30.45"
Wind
6 mph (SSE)
Dew Point
8°F
UV Index
0/10 (Low)
Visibility
6 mi

Hourly Forecast

Date & Time Thu, Feb 29
6:00 AM
Thu, Feb 29
7:00 AM
Thu, Feb 29
8:00 AM
Thu, Feb 29
9:00 AM
Thu, Feb 29
10:00 AM
Thu, Feb 29
11:00 AM
Thu, Feb 29
12:00 PM
Thu, Feb 29
1:00 PM
Thu, Feb 29
2:00 PM
Thu, Feb 29
3:00 PM
Thu, Feb 29
4:00 PM
Thu, Feb 29
5:00 PM
Thu, Feb 29
6:00 PM
Thu, Feb 29
7:00 PM
Thu, Feb 29
8:00 PM
Thu, Feb 29
9:00 PM
Thu, Feb 29
10:00 PM
Thu, Feb 29
11:00 PM
Fri, Mar 1
12:00 AM
Fri, Mar 1
1:00 AM
Fri, Mar 1
2:00 AM
Fri, Mar 1
3:00 AM
Fri, Mar 1
4:00 AM
Fri, Mar 1
5:00 AM
Fri, Mar 1
6:00 AM
Fri, Mar 1
7:00 AM
Fri, Mar 1
8:00 AM
Fri, Mar 1
9:00 AM
Fri, Mar 1
10:00 AM
Fri, Mar 1
11:00 AM
Fri, Mar 1
12:00 PM
Fri, Mar 1
1:00 PM
Fri, Mar 1
2:00 PM
Fri, Mar 1
3:00 PM
Fri, Mar 1
4:00 PM
Fri, Mar 1
5:00 PM
Fri, Mar 1
6:00 PM
Fri, Mar 1
7:00 PM
Fri, Mar 1
8:00 PM
Fri, Mar 1
9:00 PM
Fri, Mar 1
10:00 PM
Fri, Mar 1
11:00 PM
Sat, Mar 2
12:00 AM
Sat, Mar 2
1:00 AM
Sat, Mar 2
2:00 AM
Sat, Mar 2
3:00 AM
Sat, Mar 2
4:00 AM
Sat, Mar 2
5:00 AM
Condition
Clouds

Clouds

Clouds

Clouds

Clouds

Clouds

Clouds

Clouds

Clouds

Clouds

Clouds

Clouds

Clouds

Clouds

Rain

Rain

Clouds

Clouds

Clouds

Clouds

Clouds

Clouds

Clouds

Clouds

Clouds

Clear

Clear

Clear

Clear

Clear

Clear

Clear

Clear

Clear

Clear

Clear

Clear

Clear

Clear

Clear

Clear

Clear

Clear

Clear

Clear

Clear

Clear

Clear
Temperature 25°F27°F29°F34°F40°F48°F50°F50°F51°F52°F47°F42°F41°F40°F39°F38°F39°F40°F40°F37°F36°F35°F35°F34°F34°F34°F37°F42°F46°F51°F55°F58°F60°F61°F62°F61°F56°F52°F51°F51°F51°F50°F50°F50°F50°F50°F50°F51°F
Feels Like 19°F21°F24°F28°F34°F43°F46°F45°F46°F48°F41°F36°F35°F34°F32°F32°F33°F33°F33°F31°F30°F29°F29°F29°F28°F28°F30°F35°F41°F48°F52°F56°F58°F59°F59°F59°F54°F50°F49°F49°F49°F48°F46°F45°F48°F48°F49°F49°F
Cloudiness 95%96%97%98%99%100%100%100%100%100%99%99%99%100%100%100%100%100%100%44%32%24%20%17%15%6%4%3%2%2%1%0%0%0%0%0%0%0%0%0%0%0%0%0%0%0%0%0%
Visibility 6 mi6 mi6 mi6 mi6 mi6 mi6 mi6 mi6 mi6 mi6 mi6 mi6 mi6 mi6 mi6 mi6 mi6 mi6 mi6 mi6 mi6 mi6 mi6 mi6 mi6 mi6 mi6 mi6 mi6 mi6 mi6 mi6 mi6 mi6 mi6 mi6 mi6 mi6 mi6 mi6 mi6 mi6 mi6 mi6 mi6 mi6 mi6 mi
Precipitation 0%0%0%0%0%0%0%3%0%1%0%0%0%28%56%60%49%27%21%0%0%0%0%0%0%0%0%0%0%0%0%0%0%0%0%0%0%0%0%0%0%0%0%0%0%0%0%0%
Humidity 43%43%42%38%33%26%24%25%25%31%54%70%73%74%82%91%86%81%80%87%91%92%93%94%94%95%87%75%65%55%47%42%40%40%41%45%55%63%69%70%72%74%75%75%75%75%76%77%
Dew Point 8°F9°F11°F13°F15°F15°F15°F15°F16°F22°F31°F33°F33°F33°F34°F35°F35°F34°F34°F34°F33°F33°F33°F32°F32°F32°F33°F34°F35°F35°F35°F35°F35°F36°F37°F39°F40°F40°F40°F41°F41°F42°F42°F42°F42°F42°F43°F44°F
Pressure 30.45"30.45"30.45"30.42"30.42"30.39"30.33"30.33"30.3"30.27"30.27"30.27"30.27"30.27"30.27"30.27"30.27"30.24"30.21"30.21"30.18"30.18"30.15"30.15"30.15"30.15"30.18"30.15"30.15"30.09"30.09"30.06"30.03"30"29.97"29.97"30"30"30.03"30.03"30.03"30.03"30"30"30"30"29.97"29.97"
Wind Speed 4.8 mph4.9 mph4.8 mph7.3 mph9.4 mph12.3 mph12.8 mph12.4 mph13.1 mph14.5 mph16.2 mph11.7 mph10.2 mph10.2 mph11.1 mph9.4 mph8.5 mph9.8 mph10.3 mph8.3 mph7.2 mph7.3 mph6.9 mph6.9 mph7 mph7.3 mph9.6 mph11.4 mph11 mph11.2 mph11 mph10.8 mph11.8 mph12.4 mph12.6 mph10.2 mph7.6 mph7.7 mph8.7 mph10 mph11 mph10.6 mph10.7 mph11.2 mph12 mph12.8 mph13.7 mph14.8 mph
Wind
Direction
164°
SSE
175°
S
173°
S
168°
SSE
178°
S
175°
S
172°
S
181°
S
188°
S
189°
S
189°
S
189°
S
189°
S
179°
S
177°
S
177°
S
176°
S
178°
S
176°
S
170°
S
159°
SSE
161°
SSE
157°
SSE
157°
SSE
161°
SSE
168°
SSE
173°
S
181°
S
182°
S
183°
S
187°
S
193°
SSW
193°
SSW
193°
SSW
191°
S
185°
S
171°
S
153°
SSE
149°
SSE
152°
SSE
153°
SSE
157°
SSE
158°
SSE
160°
SSE
163°
SSE
164°
SSE
165°
SSE
166°
SSE

Daily Forecast

Date High Low Precip. Humidity
Today
Feb 29

Rain
52 °F
25 °F
60%
24%
Friday
Mar 1

Clear
62 °F
34 °F
21%
47%
Saturday
Mar 2

Clear
77 °F
50 °F
0%
48%
Sunday
Mar 3

Clear
80 °F
61 °F
0%
48%
Monday
Mar 4

Rain
78 °F
63 °F
97%
66%
Tuesday
Mar 5

Rain
65 °F
42 °F
91%
66%
Wednesday
Mar 6

Clouds
55 °F
33 °F
0%
42%
Thursday
Mar 7

Rain
54 °F
40 °F
99%
57%
Friday
Mar 8

Rain
59 °F
46 °F
100%
70%
Saturday
Mar 9

Rain
51 °F
37 °F
100%
95%
Sunday
Mar 10

Clouds
58 °F
36 °F
0%
49%
Monday
Mar 11

Clouds
67 °F
45 °F
0%
48%
Tuesday
Mar 12

Clear
70 °F
51 °F
0%
49%
Wednesday
Mar 13

Rain
63 °F
57 °F
100%
88%
Thursday
Mar 14

Rain
70 °F
54 °F
44%
54%
Friday
Mar 15

Rain
52 °F
42 °F
80%
83%

Temperature 8-14 Day Outlook



Precipitation 8-14 Day Outlook




Quick Links
Lake Hudson News
Lake Hudson Photos
Lake Hudson Videos




About Us
Contact Us
Site Map
Search Site
Advertise With Us
   
Hudson.USLakes.info
THE LAKE HUDSON WEBSITE

Copyright 2024, Lakes Online
Privacy    |    Legal